Location: Napier
(39.4830°S, 176.9170°E)
Time: 14:29:26
(UTC+12:00)

GPS 2-04 Rocket1 - Pass Details

Date: 15 August 2020
Orbit: 418 x 548 km, 35.6° (Epoch: 23 September)

Event Time Altitude Azimuth Distance (km) Brightness Sun altitude
Rises 18:22:43 0° 310° (NW) 2,616 7.4 -9.9°
Reaches altitude 10° 18:25:15 10° 323° (NW) 1,708 6.1 -10.4°
Maximum altitude 18:28:29 25° 19° (NNE) 1,028 4.1 -11.0°
Enters shadow 18:30:58 14° 68° (ENE) 1,443 4.4 -11.5°
